TimeEDT,TemperatureF,Dew PointF,Humidity,Sea Level PressureIn,VisibilityMPH,Wind Direction,Wind SpeedMPH,Gust SpeedMPH,PrecipitationIn,Events,Conditions,WindDirDegrees,DateUTC
12:53 AM,64.0,57.9,80,30.10,10.0,Calm,Calm,-,N/A,,Clear,0,2013-08-05 04:53:00
1:53 AM,62.1,57.0,84,30.10,10.0,North,3.5,-,N/A,,Clear,360,2013-08-05 05:53:00
2:53 AM,62.1,57.0,84,30.09,10.0,Calm,Calm,-,N/A,,Clear,0,2013-08-05 06:53:00
3:53 AM,60.1,55.9,86,30.07,10.0,Calm,Calm,-,N/A,,Clear,0,2013-08-05 07:53:00
4:53 AM,59.0,55.9,90,30.08,10.0,North,3.5,-,N/A,,Clear,10,2013-08-05 08:53:00
5:53 AM,59.0,55.9,90,30.08,10.0,North,3.5,-,N/A,,Clear,360,2013-08-05 09:53:00
6:53 AM,57.9,55.0,90,30.09,10.0,Calm,Calm,-,N/A,,Clear,0,2013-08-05 10:53:00
7:53 AM,62.1,57.0,84,30.10,10.0,Calm,Calm,-,N/A,,Clear,0,2013-08-05 11:53:00
8:53 AM,64.0,57.9,80,30.10,10.0,Calm,Calm,-,N/A,,Clear,0,2013-08-05 12:53:00
9:53 AM,69.1,60.1,73,30.10,10.0,Variable,3.5,-,N/A,,Clear,0,2013-08-05 13:53:00
10:53 AM,73.0,60.1,64,30.09,10.0,Variable,4.6,-,N/A,,Clear,0,2013-08-05 14:53:00
11:53 AM,73.9,59.0,59,30.07,10.0,ESE,3.5,-,N/A,,Partly Cloudy,120,2013-08-05 15:53:00
12:53 PM,78.1,59.0,52,30.06,10.0,Variable,3.5,-,N/A,,Scattered Clouds,0,2013-08-05 16:53:00
1:53 PM,77.0,57.0,50,30.04,10.0,Variable,3.5,-,N/A,,Mostly Cloudy,0,2013-08-05 17:53:00
2:53 PM,80.1,57.0,45,30.03,10.0,Variable,5.8,-,N/A,,Clear,0,2013-08-05 18:53:00
3:53 PM,79.0,57.0,47,30.01,10.0,Variable,4.6,-,N/A,,Partly Cloudy,0,2013-08-05 19:53:00
4:53 PM,81.0,57.9,45,30.01,10.0,NW,3.5,-,N/A,,Clear,320,2013-08-05 20:53:00
5:53 PM,78.1,57.9,50,30.01,10.0,WNW,6.9,-,N/A,,Clear,290,2013-08-05 21:53:00
6:53 PM,79.0,57.9,48,30.00,10.0,NNW,3.5,-,N/A,,Partly Cloudy,340,2013-08-05 22:53:00
7:53 PM,75.9,59.0,56,29.99,10.0,Calm,Calm,-,N/A,,Scattered Clouds,0,2013-08-05 23:53:00
8:53 PM,73.0,61.0,66,29.98,10.0,Calm,Calm,-,N/A,,Clear,0,2013-08-06 00:53:00
9:53 PM,71.1,61.0,70,29.98,10.0,Calm,Calm,-,N/A,,Clear,0,2013-08-06 01:53:00
10:53 PM,70.0,61.0,73,29.99,10.0,Calm,Calm,-,N/A,,Overcast,0,2013-08-06 02:53:00
11:53 PM,66.9,63.0,87,29.98,10.0,Calm,Calm,-,N/A,,Overcast,0,2013-08-06 03:53:00